Location: Krasnoyarskiy Pitomnik
(51.1333°N, 71.6167°E)
Time: 14:36:15
(UTC+00:00)

ATLAS 5 CENTAUR R/B - Pass Details

Date: 22 October 2021
Orbit: 497 x 1159 km, 63.4° (Epoch: 25 November)

Event Time Altitude Azimuth Distance (km) Brightness Sun altitude
Rises 13:22:22 0° 224° (SW) 2,613 5.5 -12.6°
Reaches altitude 10° 13:24:25 10° 225° (SW) 1,767 4.6 -12.9°
Maximum altitude 13:28:20 86° 315° (NW) 578 1.4 -13.5°
Enters shadow 13:32:27 12° 44° (NE) 1,874 3.6 -14.1°
